Powrót do katalogu

STARLINK-36553

AktywnyŁącznośćVLEO
NORAD 67506·PAYLOAD·🇺🇸 United States

Wystrzelony Jan 18, 2026 z Cape Canaveral Space Force Station

Loading…

Następne Przeloty (najbliższe 24 godziny)

TLE

ŚwieżeSource: CelesTrak SupGP

Epoka: Sep 15, 2026, 04:09 UTC

1 67506C 26012P   26258.17340278  .00035409  00000+0  12812-2 0  2584
2 67506  43.0024 323.9340 0001201 256.7011 154.5006 15.27594067    17

Śledź STARLINK-36553 w czasie rzeczywistym z AllMySat

Download on the App Store